Погода в Таврово-4

Россия / Белгородская область     50°29′56″N   36°35′49″E
темп.,
°C
ветер,
м/с
пор.,
м/с
влажн.,
%
обл.,
%
осадки,
мм/ч
давл.,
гПа
погр.,
м
10 апреля, сб
сб1000:00+4с34675 0.0 102656
03:00+2ссв33725 0.0 102739
06:00+2ссв33764 0.0 102732
09:00+6св34600 0.0 1027393
12:00+10ссв33435 0.0 10261724
15:00+11ссв33365 0.0 10251892
18:00+11ссв34415 0.0 10251248
21:00+7ссв33545 0.0 102639
11 апреля, вс
вс1100:00+5с33590 0.0 102742
03:00+4ссв34645 0.0 102754
06:00+3ссв366690 0.0 102893
09:00+8ссв5851100 0.0 1029593
12:00+12св67375 0.0 10281171
15:00+14ссв68331 0.0 10261278
18:00+12св6941100 0.0 1026821
21:00+8св41155100 0.0 1027363
12 апреля, пн
пн1200:00+8св5115795 0.0 1026481
03:00+8св51065100 0.0 1025403
06:00+7св4979100 0.0 1024308
09:00+10всв6981100 0.0 1023375
12:00+16всв6863100 0.0 1021711
15:00+19в5949100 0.0 10201288
18:00+19вюв495167 0.0 1019285
21:00+16юв3957100 0.0 1021199
13 апреля, вт
вт1300:00+14юв41267100 0.0 1021415
03:00+13вюв3976100 0.0 1021301
06:00+11юв3880100 0.0 1020231
09:00+12юв4683100 0.1 1021426
12:00+16ююв576099 0.0 10201425
15:00+17ююз346090 0.1 1020940
18:00+15з237175 0.1 1019168
21:00+13з1174100 0.1 102013
14 апреля, ср
ср1400:00+12зюз2274100 0.0 101922
03:00+12зюз2276100 0.0 101935
06:00+11ююз1178100 0.0 101918
09:00+13ююз226977 0.0 1019409
12:00+14ю3369100 0.0 1019689
15:00+16ю345971 0.3 10181141
18:00+16ююв346178 0.6 1017228
21:00+13ююв2368100 0.7 101759